PGT685B LTFJ-EDDH

Flight info

Callsign PGT685B
Flight time 2h 44m
Altitude 36000
Route TUDBU DCT AMTOV DCT APROB DCT BUDOP DCT FOGRE DCT PATAK DCT ODLIV DCT DCT HDO DCT SOGMA M748 RARUP
Aircraft A320/M-VGDW/C

Departure

Time 2026-04-22 13:09
Airport Istanbul Sabiha Gökçen International Airport (LTFJ)

Arrival

Time 2026-04-22 15:54
Airport Hamburg Helmut Schmidt Airport (EDDH)
Time Latitude Longitude Altitude Speed Heading
2026-04-22 12:24 40.90574 29.31542 321 ft 0 kts 334°
2026-04-22 12:55 40.90573 29.31543 321 ft 1 kts 334°
2026-04-22 12:55 40.90551 29.31558 319 ft 4 kts 328°
2026-04-22 12:56 40.90529 29.31578 319 ft 4 kts 315°
2026-04-22 12:56 40.90515 29.31605 321 ft 4 kts 273°
2026-04-22 12:56 40.90516 29.31622 320 ft 1 kts 246°
2026-04-22 12:56 40.90517 29.31623 319 ft 0 kts 246°
2026-04-22 12:58 40.90517 29.31624 319 ft 0 kts 246°
2026-04-22 12:59 40.90516 29.31622 319 ft 1 kts 246°
2026-04-22 12:59 40.90510 29.31603 321 ft 4 kts 246°
2026-04-22 13:00 40.90493 29.31556 310 ft 7 kts 244°
2026-04-22 13:00 40.90469 29.31491 321 ft 8 kts 244°
2026-04-22 13:00 40.90441 29.31434 321 ft 7 kts 211°
2026-04-22 13:00 40.90395 29.31448 320 ft 7 kts 154°
2026-04-22 13:01 40.90357 29.31473 321 ft 6 kts 154°
2026-04-22 13:01 40.90326 29.31493 320 ft 4 kts 154°
2026-04-22 13:01 40.90288 29.31493 321 ft 7 kts 205°
2026-04-22 13:01 40.90252 29.31428 321 ft 11 kts 243°
2026-04-22 13:02 40.90213 29.31323 321 ft 15 kts 244°
2026-04-22 13:02 40.90163 29.31185 320 ft 18 kts 244°
2026-04-22 13:02 40.90106 29.31031 319 ft 19 kts 244°
2026-04-22 13:02 40.90046 29.30870 321 ft 20 kts 244°
2026-04-22 13:03 40.89986 29.30705 321 ft 20 kts 244°
2026-04-22 13:03 40.89925 29.30538 320 ft 20 kts 244°
2026-04-22 13:03 40.89863 29.30370 319 ft 20 kts 244°
2026-04-22 13:03 40.89802 29.30201 320 ft 20 kts 243°
2026-04-22 13:04 40.89735 29.30035 321 ft 20 kts 246°
2026-04-22 13:04 40.89678 29.29866 321 ft 20 kts 244°
2026-04-22 13:04 40.89617 29.29700 320 ft 20 kts 243°
2026-04-22 13:04 40.89556 29.29534 321 ft 20 kts 244°
2026-04-22 13:05 40.89496 29.29370 321 ft 20 kts 244°
2026-04-22 13:05 40.89452 29.29272 321 ft 9 kts 224°
2026-04-22 13:05 40.89398 29.29253 320 ft 7 kts 171°
2026-04-22 13:05 40.89362 29.29272 320 ft 3 kts 154°
2026-04-22 13:06 40.89356 29.29276 320 ft 0 kts 154°
2026-04-22 13:07 40.89354 29.29277 319 ft 2 kts 154°
2026-04-22 13:08 40.89333 29.29290 320 ft 5 kts 153°
2026-04-22 13:08 40.89308 29.29318 321 ft 4 kts 132°
2026-04-22 13:08 40.89289 29.29365 320 ft 6 kts 105°
2026-04-22 13:08 40.89302 29.29418 321 ft 8 kts 64°
2026-04-22 13:09 40.89376 29.29619 321 ft 55 kts 64°
2026-04-22 13:09 40.89637 29.30325 322 ft 114 kts 64°
2026-04-22 13:09 40.90052 29.31461 363 ft 157 kts 63°
2026-04-22 13:09 40.90518 29.32758 1056 ft 156 kts 63°
2026-04-22 13:10 40.90994 29.34049 1863 ft 159 kts 63°
2026-04-22 13:10 40.91510 29.35443 2282 ft 181 kts 63°
2026-04-22 13:10 40.92098 29.37031 2737 ft 202 kts 63°
2026-04-22 13:10 40.92755 29.38807 3268 ft 227 kts 63°
2026-04-22 13:11 40.93467 29.40736 4180 ft 236 kts 62°
2026-04-22 13:11 40.94193 29.42708 5178 ft 243 kts 62°
2026-04-22 13:11 40.94960 29.44793 5841 ft 259 kts 61°
2026-04-22 13:11 40.95872 29.46890 6663 ft 268 kts 47°
2026-04-22 13:12 40.97345 29.48412 7447 ft 273 kts 20°
2026-04-22 13:12 40.99175 29.48904 8255 ft 275 kts 353°
2026-04-22 13:12 41.00993 29.48246 9106 ft 272 kts 326°
2026-04-22 13:12 41.02397 29.46623 9996 ft 268 kts 304°
2026-04-22 13:13 41.03556 29.44610 10407 ft 285 kts 303°
2026-04-22 13:13 41.04793 29.42423 10639 ft 306 kts 303°
2026-04-22 13:13 41.06089 29.40137 11218 ft 313 kts 303°
2026-04-22 13:13 41.07410 29.37823 11952 ft 316 kts 303°
2026-04-22 13:14 41.08746 29.35486 12685 ft 319 kts 303°
2026-04-22 13:14 41.10095 29.33132 13430 ft 321 kts 302°
2026-04-22 13:14 41.11451 29.30769 14133 ft 323 kts 302°
2026-04-22 13:14 41.12812 29.28387 14761 ft 326 kts 302°
2026-04-22 13:15 41.14183 29.25978 15398 ft 328 kts 302°
2026-04-22 13:15 41.15562 29.23554 16021 ft 330 kts 302°
2026-04-22 13:15 41.16948 29.21115 16642 ft 332 kts 302°
2026-04-22 13:15 41.18347 29.18652 17247 ft 335 kts 302°
2026-04-22 13:16 41.19758 29.16172 17836 ft 338 kts 301°
2026-04-22 13:16 41.21185 29.13666 18435 ft 341 kts 301°
2026-04-22 13:16 41.22619 29.11140 18970 ft 344 kts 301°
2026-04-22 13:16 41.24060 29.08595 19474 ft 346 kts 301°
2026-04-22 13:17 41.25513 29.06029 19988 ft 348 kts 301°
2026-04-22 13:17 41.26972 29.03449 20506 ft 350 kts 300°
2026-04-22 13:17 41.28439 29.00857 21028 ft 352 kts 300°
2026-04-22 13:17 41.29913 28.98254 21536 ft 353 kts 300°
2026-04-22 13:18 41.31373 28.95673 22056 ft 354 kts 300°
2026-04-22 13:18 41.32854 28.93049 22634 ft 356 kts 300°
2026-04-22 13:18 41.34340 28.90409 23249 ft 357 kts 300°
2026-04-22 13:18 41.35827 28.87763 23758 ft 357 kts 300°
2026-04-22 13:19 41.37315 28.85112 24194 ft 358 kts 300°
2026-04-22 13:19 41.38808 28.82451 24636 ft 359 kts 300°
2026-04-22 13:19 41.40306 28.79786 25048 ft 360 kts 300°
2026-04-22 13:19 41.41815 28.77105 25459 ft 362 kts 300°
2026-04-22 13:20 41.43324 28.74415 25866 ft 363 kts 300°
2026-04-22 13:20 41.44837 28.71713 26254 ft 365 kts 300°
2026-04-22 13:20 41.46355 28.68998 26638 ft 366 kts 300°
2026-04-22 13:20 41.47880 28.66265 27004 ft 368 kts 300°
2026-04-22 13:21 41.49411 28.63522 27385 ft 369 kts 300°
2026-04-22 13:21 41.50945 28.60767 27745 ft 371 kts 300°
2026-04-22 13:21 41.52488 28.57993 28113 ft 373 kts 300°
2026-04-22 13:21 41.54039 28.55203 28364 ft 377 kts 300°
2026-04-22 13:22 41.55610 28.52382 28589 ft 382 kts 300°
2026-04-22 13:22 41.57204 28.49514 28729 ft 387 kts 300°
2026-04-22 13:22 41.58820 28.46602 28874 ft 392 kts 300°
2026-04-22 13:22 41.60453 28.43658 29119 ft 395 kts 300°
2026-04-22 13:23 41.62090 28.40711 29502 ft 395 kts 300°
2026-04-22 13:23 41.63724 28.37777 29942 ft 393 kts 300°
2026-04-22 13:23 41.65352 28.34849 30365 ft 391 kts 300°
2026-04-22 13:23 41.66967 28.31938 30746 ft 389 kts 300°
2026-04-22 13:24 41.68572 28.29038 31128 ft 387 kts 300°
2026-04-22 13:24 41.70167 28.26149 31507 ft 385 kts 300°
2026-04-22 13:24 41.71750 28.23276 31877 ft 383 kts 300°
2026-04-22 13:24 41.73329 28.20407 32248 ft 381 kts 300°
2026-04-22 13:25 41.74897 28.17555 32608 ft 380 kts 300°
2026-04-22 13:25 41.76460 28.14705 32947 ft 379 kts 300°
2026-04-22 13:25 41.78017 28.11862 33292 ft 378 kts 300°
2026-04-22 13:25 41.79572 28.09025 33614 ft 377 kts 300°
2026-04-22 13:26 41.80603 28.07145 33817 ft 377 kts 300°
2026-04-22 13:26 41.82154 28.04317 34116 ft 377 kts 300°
2026-04-22 13:26 41.83707 28.01482 34346 ft 377 kts 300°
2026-04-22 13:26 41.85266 27.98636 34551 ft 379 kts 300°
2026-04-22 13:27 41.86827 27.95784 34741 ft 380 kts 300°
2026-04-22 13:27 41.88395 27.92914 34936 ft 382 kts 300°
2026-04-22 13:27 41.89964 27.90035 35116 ft 383 kts 300°
2026-04-22 13:27 41.91541 27.87138 35304 ft 385 kts 300°
2026-04-22 13:28 41.93121 27.84234 35491 ft 386 kts 300°
2026-04-22 13:28 41.94702 27.81325 35679 ft 387 kts 301°
2026-04-22 13:28 41.96307 27.78401 35855 ft 390 kts 303°
2026-04-22 13:28 41.98171 27.75710 36027 ft 397 kts 309°
2026-04-22 13:29 42.00163 27.73104 36080 ft 402 kts 309°
2026-04-22 13:29 42.04197 27.67817 36065 ft 406 kts 309°
2026-04-22 13:30 42.08223 27.62530 36072 ft 408 kts 309°
2026-04-22 13:30 42.12279 27.57186 36069 ft 408 kts 309°
2026-04-22 13:31 42.16337 27.51819 36069 ft 409 kts 309°
2026-04-22 13:31 42.20400 27.46441 36069 ft 410 kts 309°
2026-04-22 13:32 42.24471 27.41054 36067 ft 410 kts 309°
2026-04-22 13:32 42.28547 27.35640 36063 ft 411 kts 309°
2026-04-22 13:33 42.32626 27.30205 36054 ft 413 kts 309°
2026-04-22 13:33 42.36720 27.24746 36054 ft 414 kts 309°
2026-04-22 13:34 42.40832 27.19264 36051 ft 415 kts 310°
2026-04-22 13:34 42.44945 27.13769 36052 ft 416 kts 310°
2026-04-22 13:35 42.49065 27.08247 36049 ft 417 kts 310°
2026-04-22 13:35 42.53190 27.02701 36051 ft 418 kts 310°
2026-04-22 13:36 42.57324 26.97130 36047 ft 419 kts 310°
2026-04-22 13:36 42.61462 26.91542 36051 ft 420 kts 310°
2026-04-22 13:37 42.65610 26.85942 36055 ft 421 kts 310°
2026-04-22 13:37 42.69759 26.80323 36048 ft 421 kts 310°
2026-04-22 13:38 42.73920 26.74679 36051 ft 422 kts 310°
2026-04-22 13:38 42.80158 26.66193 36052 ft 423 kts 310°
2026-04-22 13:39 42.84287 26.60561 36055 ft 423 kts 310°
2026-04-22 13:39 42.88443 26.54872 36054 ft 423 kts 310°
2026-04-22 13:40 42.92597 26.49194 36052 ft 423 kts 310°
2026-04-22 13:40 42.96756 26.43499 36049 ft 423 kts 310°
2026-04-22 13:41 43.00905 26.37792 36047 ft 423 kts 310°
2026-04-22 13:41 43.05055 26.32072 36049 ft 424 kts 310°
2026-04-22 13:42 43.09214 26.26336 36043 ft 424 kts 310°
2026-04-22 13:42 43.13365 26.20587 36045 ft 425 kts 310°
2026-04-22 13:43 43.17518 26.14826 36047 ft 425 kts 310°
2026-04-22 13:43 43.21660 26.09030 36045 ft 425 kts 310°
2026-04-22 13:44 43.25778 26.03209 36033 ft 425 kts 310°
2026-04-22 13:44 43.29895 25.97369 36045 ft 426 kts 310°
2026-04-22 13:45 43.33970 25.91580 36056 ft 421 kts 310°
2026-04-22 13:45 43.38022 25.85820 36047 ft 423 kts 310°
2026-04-22 13:46 43.42112 25.80012 36048 ft 423 kts 310°
2026-04-22 13:46 43.46207 25.74191 36052 ft 423 kts 310°
2026-04-22 13:47 43.50295 25.68350 36052 ft 424 kts 310°
2026-04-22 13:47 43.54377 25.62492 36048 ft 424 kts 310°
2026-04-22 13:48 43.58462 25.56629 36054 ft 424 kts 310°
2026-04-22 13:48 43.62550 25.50759 36054 ft 424 kts 310°
2026-04-22 13:49 43.66636 25.44871 36051 ft 425 kts 310°
2026-04-22 13:49 43.70723 25.38972 36057 ft 425 kts 310°
2026-04-22 13:50 43.74811 25.33065 36055 ft 425 kts 310°
2026-04-22 13:50 43.78898 25.27135 36054 ft 426 kts 310°
2026-04-22 13:51 43.82985 25.21199 36058 ft 426 kts 311°
2026-04-22 13:51 43.87078 25.15250 36057 ft 426 kts 310°
2026-04-22 13:52 43.91168 25.09269 36059 ft 427 kts 310°
2026-04-22 13:52 43.95222 25.03335 36060 ft 427 kts 311°
2026-04-22 13:53 43.99510 24.97609 36060 ft 429 kts 316°
2026-04-22 13:53 44.04014 24.92166 36062 ft 429 kts 316°
2026-04-22 13:54 44.08517 24.86707 36061 ft 430 kts 316°
2026-04-22 13:54 44.13019 24.81238 36058 ft 430 kts 316°
2026-04-22 13:55 44.17524 24.75756 36059 ft 430 kts 316°
2026-04-22 13:55 44.22025 24.70253 36058 ft 430 kts 316°
2026-04-22 13:56 44.26525 24.64752 36056 ft 431 kts 316°
2026-04-22 13:56 44.31026 24.59233 36058 ft 431 kts 316°
2026-04-22 13:57 44.35532 24.53697 36057 ft 431 kts 316°
2026-04-22 13:57 44.40031 24.48150 36053 ft 432 kts 316°
2026-04-22 13:58 44.44536 24.42590 36051 ft 432 kts 316°
2026-04-22 13:58 44.49046 24.37022 36050 ft 432 kts 316°
2026-04-22 13:59 44.53553 24.31438 36054 ft 433 kts 316°
2026-04-22 13:59 44.58055 24.25846 36056 ft 433 kts 316°
2026-04-22 14:00 44.62564 24.20237 36051 ft 433 kts 316°
2026-04-22 14:00 44.67069 24.14622 36041 ft 433 kts 316°
2026-04-22 14:01 44.71577 24.08992 36048 ft 434 kts 316°
2026-04-22 14:01 44.76078 24.03341 36043 ft 434 kts 316°
2026-04-22 14:02 44.80585 23.97676 36043 ft 434 kts 316°
2026-04-22 14:02 44.85094 23.92004 36039 ft 435 kts 316°
2026-04-22 14:03 44.89605 23.86325 36044 ft 435 kts 316°
2026-04-22 14:03 44.94109 23.80631 36046 ft 435 kts 316°
2026-04-22 14:04 44.98608 23.74922 36041 ft 435 kts 316°
2026-04-22 14:04 45.03087 23.69232 36041 ft 436 kts 316°
2026-04-22 14:05 45.07592 23.63506 36037 ft 436 kts 316°
2026-04-22 14:06 45.14356 23.54887 36044 ft 436 kts 316°
2026-04-22 14:06 45.18862 23.49128 36044 ft 436 kts 316°
2026-04-22 14:07 45.23369 23.43347 36043 ft 437 kts 317°
2026-04-22 14:07 45.27874 23.37557 36045 ft 437 kts 317°
2026-04-22 14:08 45.32377 23.31756 36044 ft 438 kts 317°
2026-04-22 14:08 45.36891 23.25933 36052 ft 438 kts 317°
2026-04-22 14:09 45.41396 23.20101 36051 ft 438 kts 317°
2026-04-22 14:09 45.45906 23.14252 36055 ft 438 kts 317°
2026-04-22 14:10 45.49654 23.09388 36063 ft 439 kts 317°
2026-04-22 14:10 45.54158 23.03521 36061 ft 439 kts 317°
2026-04-22 14:11 45.58667 22.97633 36068 ft 439 kts 317°
2026-04-22 14:11 45.63177 22.91748 36073 ft 439 kts 317°
2026-04-22 14:12 45.67686 22.85846 36072 ft 440 kts 317°
2026-04-22 14:12 45.72191 22.79918 36071 ft 440 kts 317°
2026-04-22 14:13 45.76699 22.73983 36071 ft 440 kts 317°
2026-04-22 14:13 45.81208 22.68031 36075 ft 440 kts 317°
2026-04-22 14:14 45.85708 22.62072 36075 ft 441 kts 317°
2026-04-22 14:14 45.90211 22.56090 36077 ft 441 kts 317°
2026-04-22 14:15 45.94711 22.50111 36075 ft 441 kts 317°
2026-04-22 14:15 45.99211 22.44120 36075 ft 441 kts 317°
2026-04-22 14:16 46.03706 22.38114 36078 ft 441 kts 317°
2026-04-22 14:16 46.08206 22.32092 36077 ft 442 kts 317°
2026-04-22 14:17 46.12707 22.26064 36078 ft 442 kts 317°
2026-04-22 14:17 46.17205 22.20022 36084 ft 441 kts 317°
2026-04-22 14:18 46.21664 22.14019 36089 ft 441 kts 317°
2026-04-22 14:18 46.26148 22.07962 36089 ft 441 kts 317°
2026-04-22 14:19 46.30621 22.01888 36093 ft 441 kts 317°
2026-04-22 14:19 46.35092 21.95812 36095 ft 441 kts 317°
2026-04-22 14:20 46.41813 21.86672 36092 ft 442 kts 317°
2026-04-22 14:20 46.46297 21.80560 36096 ft 442 kts 317°
2026-04-22 14:21 46.53010 21.71366 36094 ft 443 kts 317°
2026-04-22 14:22 46.59721 21.62138 36097 ft 443 kts 317°
2026-04-22 14:23 46.66435 21.52870 36105 ft 443 kts 317°
2026-04-22 14:23 46.70719 21.46414 36107 ft 444 kts 312°
2026-04-22 14:24 46.74789 21.39639 36110 ft 444 kts 312°
2026-04-22 14:24 46.78836 21.32903 36109 ft 444 kts 312°
2026-04-22 14:25 46.82901 21.26105 36109 ft 444 kts 312°
2026-04-22 14:25 46.86965 21.19306 36108 ft 444 kts 312°
2026-04-22 14:26 46.91023 21.12490 36107 ft 444 kts 312°
2026-04-22 14:26 46.95084 21.05663 36108 ft 445 kts 312°
2026-04-22 14:27 46.99145 20.98827 36109 ft 445 kts 312°
2026-04-22 14:27 47.03200 20.91980 36111 ft 445 kts 312°
2026-04-22 14:28 47.07248 20.85108 36117 ft 445 kts 312°
2026-04-22 14:28 47.11292 20.78223 36117 ft 446 kts 313°
2026-04-22 14:29 47.15383 20.71376 36122 ft 446 kts 313°
2026-04-22 14:29 47.19486 20.64538 36122 ft 446 kts 313°
2026-04-22 14:30 47.23574 20.57678 36119 ft 446 kts 313°
2026-04-22 14:30 47.27649 20.50798 36124 ft 446 kts 313°
2026-04-22 14:31 47.31715 20.43911 36114 ft 446 kts 313°
2026-04-22 14:31 47.35780 20.37021 36114 ft 445 kts 313°
2026-04-22 14:32 47.39844 20.30120 36108 ft 445 kts 313°
2026-04-22 14:32 47.43898 20.23201 36097 ft 445 kts 313°
2026-04-22 14:33 47.47946 20.16274 36099 ft 445 kts 313°
2026-04-22 14:33 47.51973 20.09378 36095 ft 445 kts 313°
2026-04-22 14:34 47.56018 20.02432 36090 ft 445 kts 313°
2026-04-22 14:34 47.60059 19.95475 36086 ft 445 kts 313°
2026-04-22 14:35 47.64105 19.88494 36087 ft 446 kts 313°
2026-04-22 14:35 47.68144 19.81507 36088 ft 446 kts 313°
2026-04-22 14:36 47.72175 19.74501 36085 ft 447 kts 313°
2026-04-22 14:36 47.76205 19.67471 36086 ft 447 kts 313°
2026-04-22 14:37 47.80238 19.60432 36084 ft 447 kts 313°
2026-04-22 14:37 47.84279 19.53374 36090 ft 448 kts 313°
2026-04-22 14:38 47.88294 19.46348 36091 ft 448 kts 313°
2026-04-22 14:38 47.92329 19.39252 36092 ft 449 kts 312°
2026-04-22 14:39 47.96358 19.32127 36100 ft 449 kts 312°
2026-04-22 14:39 48.00386 19.24997 36103 ft 450 kts 313°
2026-04-22 14:40 48.06629 19.14550 36102 ft 449 kts 316°
2026-04-22 14:40 48.11013 19.07897 36114 ft 449 kts 317°
2026-04-22 14:41 48.15439 19.01292 36116 ft 449 kts 317°
2026-04-22 14:41 48.19823 18.94625 36118 ft 450 kts 317°
2026-04-22 14:42 48.24181 18.87897 36115 ft 450 kts 317°
2026-04-22 14:42 48.28538 18.81143 36124 ft 450 kts 317°
2026-04-22 14:43 48.32902 18.74392 36123 ft 450 kts 317°
2026-04-22 14:43 48.37274 18.67636 36130 ft 451 kts 317°
2026-04-22 14:44 48.41644 18.60862 36139 ft 451 kts 317°
2026-04-22 14:44 48.46011 18.54058 36139 ft 452 kts 317°
2026-04-22 14:45 48.50376 18.47235 36145 ft 452 kts 317°
2026-04-22 14:45 48.54728 18.40400 36153 ft 452 kts 317°
2026-04-22 14:46 48.59090 18.33551 36161 ft 452 kts 317°
2026-04-22 14:46 48.63442 18.26692 36157 ft 452 kts 317°
2026-04-22 14:47 48.67797 18.19817 36167 ft 453 kts 317°
2026-04-22 14:47 48.72155 18.12932 36164 ft 453 kts 317°
2026-04-22 14:48 48.76503 18.06024 36161 ft 453 kts 316°
2026-04-22 14:48 48.80843 17.99105 36161 ft 453 kts 317°
2026-04-22 14:49 48.85190 17.92165 36161 ft 453 kts 317°
2026-04-22 14:49 48.89513 17.85264 36166 ft 454 kts 317°
2026-04-22 14:50 48.93855 17.78308 36176 ft 454 kts 316°
2026-04-22 14:50 48.98193 17.71318 36179 ft 454 kts 316°
2026-04-22 14:51 49.02525 17.64309 36179 ft 454 kts 316°
2026-04-22 14:51 49.06855 17.57302 36179 ft 454 kts 316°
2026-04-22 14:52 49.11189 17.50277 36178 ft 455 kts 316°
2026-04-22 14:52 49.15525 17.43233 36181 ft 455 kts 316°
2026-04-22 14:53 49.19853 17.36167 36182 ft 456 kts 316°
2026-04-22 14:53 49.23384 17.30391 36189 ft 456 kts 316°
2026-04-22 14:54 49.27719 17.23295 36190 ft 456 kts 316°
2026-04-22 14:54 49.32048 17.16188 36190 ft 456 kts 316°
2026-04-22 14:55 49.36376 17.09052 36193 ft 457 kts 316°
2026-04-22 14:55 49.40699 17.01904 36193 ft 457 kts 316°
2026-04-22 14:56 49.45023 16.94747 36194 ft 457 kts 316°
2026-04-22 14:56 49.49332 16.87573 36196 ft 457 kts 316°
2026-04-22 14:57 49.53640 16.80375 36197 ft 457 kts 316°
2026-04-22 14:57 49.57948 16.73174 36202 ft 457 kts 316°
2026-04-22 14:58 49.62263 16.65954 36206 ft 458 kts 316°
2026-04-22 14:58 49.66573 16.58722 36210 ft 458 kts 316°
2026-04-22 14:59 49.70878 16.51466 36213 ft 458 kts 316°
2026-04-22 14:59 49.75170 16.44185 36216 ft 458 kts 316°
2026-04-22 15:00 49.79466 16.36892 36216 ft 458 kts 316°
2026-04-22 15:00 49.83766 16.29598 36221 ft 459 kts 316°
2026-04-22 15:01 49.88066 16.22277 36220 ft 459 kts 316°
2026-04-22 15:01 49.92354 16.14936 36209 ft 459 kts 316°
2026-04-22 15:02 49.94502 16.11256 36045 ft 459 kts 316°
2026-04-22 15:02 49.96644 16.07582 35846 ft 459 kts 316°
2026-04-22 15:02 49.98788 16.03904 35646 ft 459 kts 316°
2026-04-22 15:02 50.00932 16.00220 35449 ft 459 kts 316°
2026-04-22 15:03 50.03073 15.96536 35253 ft 460 kts 316°
2026-04-22 15:03 50.05216 15.92838 35045 ft 460 kts 316°
2026-04-22 15:03 50.07357 15.89136 34856 ft 461 kts 316°
2026-04-22 15:03 50.09501 15.85425 34619 ft 461 kts 316°
2026-04-22 15:04 50.11644 15.81711 34384 ft 461 kts 316°
2026-04-22 15:04 50.13790 15.77986 34135 ft 462 kts 316°
2026-04-22 15:04 50.15935 15.74264 33861 ft 462 kts 316°
2026-04-22 15:04 50.18088 15.70520 33575 ft 464 kts 316°
2026-04-22 15:05 50.20239 15.66764 33301 ft 465 kts 316°
2026-04-22 15:05 50.22392 15.62996 33028 ft 466 kts 317°
2026-04-22 15:05 50.24551 15.59213 32754 ft 467 kts 317°
2026-04-22 15:05 50.26714 15.55423 32502 ft 468 kts 317°
2026-04-22 15:06 50.28882 15.51623 32241 ft 469 kts 317°
2026-04-22 15:06 50.31054 15.47807 31978 ft 470 kts 317°
2026-04-22 15:06 50.33200 15.44030 31721 ft 471 kts 317°
2026-04-22 15:06 50.35381 15.40188 31460 ft 472 kts 317°
2026-04-22 15:07 50.37566 15.36339 31206 ft 473 kts 317°
2026-04-22 15:07 50.39751 15.32482 30945 ft 475 kts 317°
2026-04-22 15:07 50.41946 15.28602 30698 ft 476 kts 317°
2026-04-22 15:07 50.44143 15.24710 30454 ft 477 kts 317°
2026-04-22 15:08 50.46344 15.20802 30216 ft 478 kts 317°
2026-04-22 15:08 50.48543 15.16895 30264 ft 478 kts 317°
2026-04-22 15:08 50.52984 15.08991 30262 ft 480 kts 317°
2026-04-22 15:09 50.57365 15.01162 30261 ft 480 kts 316°
2026-04-22 15:09 50.61772 14.93245 30259 ft 481 kts 316°
2026-04-22 15:10 50.66212 14.85247 30259 ft 482 kts 316°
2026-04-22 15:10 50.70594 14.77339 30252 ft 482 kts 316°
2026-04-22 15:11 50.75002 14.69374 30244 ft 482 kts 316°
2026-04-22 15:11 50.79405 14.61386 30249 ft 482 kts 316°
2026-04-22 15:12 50.83804 14.53377 30246 ft 482 kts 316°
2026-04-22 15:12 50.88206 14.45337 30246 ft 483 kts 316°
2026-04-22 15:13 50.92623 14.37339 30246 ft 480 kts 320°
2026-04-22 15:13 50.97583 14.30366 30250 ft 476 kts 325°
2026-04-22 15:14 51.02599 14.23474 30255 ft 477 kts 324°
2026-04-22 15:14 51.07604 14.16562 30258 ft 477 kts 324°
2026-04-22 15:15 51.12619 14.09617 30265 ft 477 kts 324°
2026-04-22 15:15 51.17626 14.02675 30260 ft 477 kts 324°
2026-04-22 15:16 51.22642 13.95743 30271 ft 477 kts 325°
2026-04-22 15:16 51.27787 13.89079 30273 ft 475 kts 327°
2026-04-22 15:17 51.32997 13.82583 30267 ft 475 kts 327°
2026-04-22 15:17 51.38198 13.76034 30263 ft 476 kts 327°
2026-04-22 15:18 51.43364 13.69399 30257 ft 476 kts 326°
2026-04-22 15:18 51.48521 13.62712 30260 ft 476 kts 326°
2026-04-22 15:19 51.53680 13.56033 30265 ft 476 kts 326°
2026-04-22 15:19 51.58849 13.49360 30269 ft 477 kts 326°
2026-04-22 15:20 51.64011 13.42666 30268 ft 477 kts 326°
2026-04-22 15:20 51.69165 13.35942 30269 ft 477 kts 326°
2026-04-22 15:21 51.74316 13.29203 30273 ft 477 kts 326°
2026-04-22 15:21 51.79434 13.22492 30301 ft 463 kts 326°
2026-04-22 15:22 51.81884 13.19264 30294 ft 446 kts 326°
2026-04-22 15:22 51.84252 13.16136 30298 ft 434 kts 326°
2026-04-22 15:22 51.88902 13.10030 30300 ft 428 kts 326°
2026-04-22 15:23 51.93524 13.03955 30301 ft 428 kts 326°
2026-04-22 15:23 51.98131 12.97851 30301 ft 427 kts 325°
2026-04-22 15:24 52.02731 12.91739 30303 ft 427 kts 325°
2026-04-22 15:24 52.07321 12.85617 30291 ft 427 kts 325°
2026-04-22 15:25 52.11909 12.79483 30296 ft 427 kts 325°
2026-04-22 15:25 52.16454 12.73379 30296 ft 426 kts 325°
2026-04-22 15:26 52.21024 12.67226 30295 ft 426 kts 325°
2026-04-22 15:26 52.25592 12.61067 30291 ft 426 kts 324°
2026-04-22 15:27 52.30159 12.54895 30291 ft 426 kts 324°
2026-04-22 15:27 52.34714 12.48713 30305 ft 425 kts 324°
2026-04-22 15:28 52.39267 12.42529 30299 ft 425 kts 324°
2026-04-22 15:28 52.43811 12.36339 30301 ft 425 kts 324°
2026-04-22 15:29 52.48346 12.30140 30309 ft 424 kts 324°
2026-04-22 15:30 52.54387 12.21886 30303 ft 424 kts 324°
2026-04-22 15:30 52.59672 12.14602 30306 ft 424 kts 324°
2026-04-22 15:31 52.64169 12.08372 30038 ft 417 kts 323°
2026-04-22 15:31 52.66368 12.05323 29750 ft 409 kts 324°
2026-04-22 15:31 52.68534 12.02327 29460 ft 404 kts 324°
2026-04-22 15:31 52.70675 11.99364 29173 ft 401 kts 324°
2026-04-22 15:32 52.72805 11.96411 28886 ft 399 kts 324°
2026-04-22 15:32 52.74925 11.93477 28609 ft 396 kts 324°
2026-04-22 15:32 52.77032 11.90563 28335 ft 394 kts 324°
2026-04-22 15:32 52.79124 11.87656 28066 ft 392 kts 323°
2026-04-22 15:33 52.81200 11.84758 27789 ft 390 kts 323°
2026-04-22 15:33 52.83268 11.81864 27523 ft 388 kts 323°
2026-04-22 15:33 52.85317 11.78981 27260 ft 385 kts 323°
2026-04-22 15:33 52.87342 11.76126 26866 ft 381 kts 323°
2026-04-22 15:34 52.89354 11.73290 26427 ft 379 kts 323°
2026-04-22 15:34 52.91360 11.70471 25982 ft 378 kts 323°
2026-04-22 15:34 52.93365 11.67664 25529 ft 377 kts 323°
2026-04-22 15:34 52.95366 11.64865 25060 ft 376 kts 322°
2026-04-22 15:35 52.96691 11.63007 24753 ft 376 kts 322°
2026-04-22 15:35 52.98683 11.60206 24283 ft 376 kts 322°
2026-04-22 15:35 53.00669 11.57397 23787 ft 376 kts 322°
2026-04-22 15:35 53.02659 11.54572 23278 ft 375 kts 322°
2026-04-22 15:36 53.04630 11.51765 22812 ft 372 kts 322°
2026-04-22 15:36 53.06592 11.48971 22345 ft 370 kts 322°
2026-04-22 15:36 53.08549 11.46189 21887 ft 368 kts 322°
2026-04-22 15:36 53.10492 11.43434 21438 ft 366 kts 322°
2026-04-22 15:37 53.12421 11.40696 21000 ft 364 kts 322°
2026-04-22 15:37 53.14306 11.37899 20524 ft 363 kts 317°
2026-04-22 15:37 53.16039 11.34839 20077 ft 362 kts 315°
2026-04-22 15:37 53.17744 11.31748 19589 ft 362 kts 315°
2026-04-22 15:38 53.19444 11.28657 19103 ft 362 kts 315°
2026-04-22 15:38 53.22847 11.22455 18060 ft 362 kts 315°
2026-04-22 15:38 53.24547 11.19357 17535 ft 362 kts 315°
2026-04-22 15:39 53.26246 11.16261 17011 ft 361 kts 315°
2026-04-22 15:39 53.27940 11.13174 16559 ft 359 kts 315°
2026-04-22 15:39 53.29618 11.10112 16131 ft 356 kts 314°
2026-04-22 15:39 53.31276 11.07081 15684 ft 347 kts 315°
2026-04-22 15:40 53.32872 11.04156 15264 ft 333 kts 315°
2026-04-22 15:40 53.34393 11.01357 14886 ft 327 kts 315°
2026-04-22 15:40 53.35918 10.98546 14519 ft 325 kts 315°
2026-04-22 15:40 53.37434 10.95749 14151 ft 324 kts 315°
2026-04-22 15:41 53.38942 10.92961 13745 ft 322 kts 315°
2026-04-22 15:41 53.40442 10.90186 13351 ft 321 kts 314°
2026-04-22 15:41 53.41925 10.87442 12946 ft 311 kts 314°
2026-04-22 15:41 53.43339 10.84818 12650 ft 296 kts 314°
2026-04-22 15:42 53.44691 10.82304 12407 ft 287 kts 315°
2026-04-22 15:42 53.46022 10.79826 12147 ft 283 kts 314°
2026-04-22 15:42 53.47331 10.77387 11886 ft 280 kts 315°
2026-04-22 15:42 53.48625 10.74975 11561 ft 275 kts 314°
2026-04-22 15:43 53.49880 10.72634 11249 ft 266 kts 315°
2026-04-22 15:43 53.51112 10.70337 10929 ft 263 kts 314°
2026-04-22 15:43 53.52331 10.68063 10611 ft 261 kts 314°
2026-04-22 15:43 53.53547 10.65796 10292 ft 261 kts 315°
2026-04-22 15:44 53.54761 10.63537 9949 ft 260 kts 314°
2026-04-22 15:44 53.55971 10.61287 9600 ft 257 kts 314°
2026-04-22 15:44 53.57144 10.59104 9250 ft 247 kts 314°
2026-04-22 15:44 53.58295 10.56964 8917 ft 246 kts 314°
2026-04-22 15:45 53.59438 10.54842 8567 ft 241 kts 315°
2026-04-22 15:45 53.60539 10.52792 8238 ft 232 kts 314°
2026-04-22 15:45 53.61572 10.50869 7914 ft 225 kts 314°
2026-04-22 15:45 53.62607 10.48939 7592 ft 220 kts 314°
2026-04-22 15:46 53.63638 10.47019 7279 ft 222 kts 314°
2026-04-22 15:46 53.64683 10.45081 6959 ft 225 kts 314°
2026-04-22 15:46 53.65743 10.43121 6624 ft 227 kts 314°
2026-04-22 15:46 53.66809 10.41153 6291 ft 226 kts 314°
2026-04-22 15:47 53.67860 10.39217 5954 ft 221 kts 314°
2026-04-22 15:47 53.68887 10.37324 5623 ft 216 kts 315°
2026-04-22 15:47 53.69891 10.35471 5300 ft 212 kts 314°
2026-04-22 15:47 53.70875 10.33656 4972 ft 207 kts 314°
2026-04-22 15:48 53.71819 10.31911 4644 ft 196 kts 314°
2026-04-22 15:48 53.72725 10.30239 4328 ft 188 kts 314°
2026-04-22 15:48 53.73594 10.28653 4030 ft 181 kts 314°
2026-04-22 15:48 53.74391 10.27033 3716 ft 180 kts 296°
2026-04-22 15:49 53.74579 10.24968 3452 ft 178 kts 269°
2026-04-22 15:49 53.74437 10.22919 3190 ft 173 kts 262°
2026-04-22 15:49 53.73955 10.21071 3018 ft 175 kts 238°
2026-04-22 15:49 53.73183 10.19471 2963 ft 175 kts 234°
2026-04-22 15:50 53.72404 10.17882 2796 ft 175 kts 234°
2026-04-22 15:50 53.71637 10.16319 2583 ft 169 kts 234°
2026-04-22 15:50 53.70901 10.14818 2342 ft 162 kts 234°
2026-04-22 15:50 53.70206 10.13404 2136 ft 152 kts 235°
2026-04-22 15:51 53.69551 10.12068 1935 ft 144 kts 235°
2026-04-22 15:51 53.68919 10.10780 1754 ft 142 kts 236°
2026-04-22 15:51 53.68295 10.09509 1556 ft 140 kts 234°
2026-04-22 15:51 53.67679 10.08255 1359 ft 139 kts 236°
2026-04-22 15:52 53.67072 10.07020 1169 ft 139 kts 236°
2026-04-22 15:52 53.66466 10.05775 977 ft 138 kts 236°
2026-04-22 15:52 53.65859 10.04533 797 ft 138 kts 233°
2026-04-22 15:52 53.65246 10.03316 647 ft 135 kts 236°
2026-04-22 15:53 53.64668 10.02102 437 ft 132 kts 232°
2026-04-22 15:53 53.64066 10.00927 242 ft 132 kts 235°
2026-04-22 15:53 53.63477 9.99715 65 ft 131 kts 234°
2026-04-22 15:53 53.62970 9.98677 49 ft 86 kts 230°
2026-04-22 15:54 53.62766 9.98272 50 ft 34 kts 230°
2026-04-22 15:54 53.62619 9.97978 48 ft 32 kts 230°
2026-04-22 15:54 53.62542 9.97823 47 ft 10 kts 229°
2026-04-22 15:54 53.62477 9.97790 47 ft 11 kts 167°
2026-04-22 15:55 53.62432 9.97854 49 ft 8 kts 118°
2026-04-22 15:55 53.62436 9.97980 47 ft 12 kts 78°
2026-04-22 15:55 53.62469 9.98100 50 ft 11 kts 56°
2026-04-22 15:55 53.62514 9.98195 50 ft 10 kts 51°
2026-04-22 15:56 53.62562 9.98295 50 ft 13 kts 51°
2026-04-22 15:56 53.62634 9.98440 50 ft 19 kts 50°
2026-04-22 15:56 53.62730 9.98633 50 ft 23 kts 50°
2026-04-22 15:56 53.62842 9.98860 50 ft 27 kts 50°
2026-04-22 15:57 53.62945 9.99069 50 ft 19 kts 50°
2026-04-22 15:57 53.63012 9.99205 50 ft 13 kts 50°
2026-04-22 15:57 53.63063 9.99315 50 ft 12 kts 54°
2026-04-22 15:57 53.63111 9.99433 49 ft 12 kts 57°
2026-04-22 15:58 53.63157 9.99538 49 ft 11 kts 51°
2026-04-22 15:58 53.63204 9.99634 50 ft 9 kts 50°
2026-04-22 15:58 53.63226 9.99721 50 ft 8 kts 95°
2026-04-22 15:58 53.63193 9.99788 50 ft 7 kts 150°
2026-04-22 15:59 53.63150 9.99826 50 ft 6 kts 153°
2026-04-22 15:59 53.63111 9.99859 50 ft 6 kts 153°
2026-04-22 15:59 53.63046 9.99915 50 ft 14 kts 153°
2026-04-22 15:59 53.62957 9.99992 50 ft 9 kts 152°
2026-04-22 16:00 53.62910 10.00041 48 ft 7 kts 130°
2026-04-22 16:00 53.62938 10.00122 51 ft 13 kts 35°
2026-04-22 16:00 53.63012 10.00200 51 ft 6 kts 32°
2026-04-22 16:00 53.63024 10.00256 51 ft 6 kts 102°
2026-04-22 16:01 53.63004 10.00326 49 ft 4 kts 116°
2026-04-22 16:01 53.62999 10.00345 51 ft 0 kts 116°